Powrót do katalogu

VIREON-1

AktywnyNaukaSSO
NORAD 68434·PAYLOAD·🇬🇧 United Kingdom

Wystrzelony Mar 30, 2026 z Vandenberg Space Force Base

Loading…

Następne Przeloty (najbliższe 24 godziny)

TLE

ŚwieżeSource: Space-Track

Epoka: Sep 14, 2026, 04:39 UTC

1 68434U 26067U   26257.19391941  .00002029  00000-0  99985-4 0  9992
2 68434  97.4688 214.6263 0002859  58.8046 301.3469 15.19082385 25452

Śledź VIREON-1 w czasie rzeczywistym z AllMySat

Download on the App Store